Location: Napier
(39.4830°S, 176.9170°E)
Time: 23:49:17
(UTC+13:00)

MetOp-B - Visible Passes

Search period start: 15 December 2019 00:00
Search period end: 25 December 2019 00:00
Orbit: 819 x 821 km, 98.7° (Epoch: 14 December)

Date Brightness Start Highest point End Pass type
(mag) Time Alt. Az. Time Alt. Az. Time Alt. Az.
15 Dec 4.1 22:55:47 10° SSE 23:01:14 74° ENE 23:03:19 38° N visible
16 Dec 6.6 00:37:39 10° SSW 00:40:38 15° WSW 00:43:36 10° W visible
16 Dec 4.5 22:35:15 10° SSE 22:40:29 47° E 22:42:24 33° NNE visible
17 Dec 6.2 00:16:05 10° SSW 00:20:12 23° WSW 00:23:45 12° WNW visible
17 Dec 5.0 22:14:55 10° SE 22:19:41 30° E 22:21:28 25° NE visible
17 Dec 5.6 23:54:53 10° S 23:59:42 33° WSW 00:02:50 19° WNW visible
18 Dec 5.5 21:54:55 10° SE 21:58:48 20° E 22:00:32 17° ENE visible
18 Dec 4.8 23:33:54 10° S 23:39:09 51° WSW 23:41:54 26° NW visible
19 Dec 6.0 21:35:43 10° ESE 21:37:52 12° E 21:39:37 11° ENE visible
19 Dec 4.2 23:13:04 10° S 23:18:31 78° WSW 23:20:58 34° NNW visible
20 Dec 6.9 00:56:43 10° SW 00:57:39 10° WSW 00:58:35 10° WSW visible
20 Dec 4.1 22:52:24 10° SSE 22:57:49 69° ENE 23:00:02 36° N visible
21 Dec 6.6 00:34:04 10° SSW 00:37:17 16° WSW 00:40:29 10° W visible
21 Dec 4.5 22:31:53 10° SSE 22:37:04 44° E 22:39:06 31° NNE visible
22 Dec 6.1 00:12:35 10° SSW 00:16:51 24° WSW 00:20:27 13° WNW visible
22 Dec 5.1 22:11:37 10° SE 22:16:15 28° E 22:18:10 23° NE visible
22 Dec 5.4 23:51:25 10° S 23:56:20 36° WSW 23:59:31 19° WNW visible
23 Dec 5.6 21:51:41 10° SE 21:55:22 18° E 21:57:13 16° ENE visible
23 Dec 4.7 23:30:28 10° S 23:35:45 55° WSW 23:38:35 27° NW visible
24 Dec 6.0 21:32:49 10° ESE 21:34:24 11° E 21:36:00 10° ENE visible
24 Dec 4.1 23:09:40 10° SSE 23:15:07 84° WSW 23:17:38 33° NNW visible
